EW1895 Weather Reports


time (UTC)temp
C
wind
direction
speed
KPH
gust
KPH
rain 1hr
cm
rain 24hr
cm
rain mn
cm
humidity
%
barometer
mb
20260906230040 23 331 0.0 0.0 0.00 0.00 0.00 71 1014.5
20260906224545 24 331 0.0 0.0 0.00 0.00 0.00 70 1014.5
20260906223040 25 331 0.0 0.0 0.00 0.00 0.00 68 1014.4
20260906221540 25 331 0.0 3.2 0.00 0.00 0.00 67 1014.2
20260906220039 25 319 0.0 1.6 0.00 0.00 0.00 64 1014.2
20260906214540 26 321 0.0 4.8 0.00 0.00 0.00 60 1014.4
20260906213039 26 360 0.0 3.2 0.00 0.00 0.00 57 1014.1
20260906211542 26 49 0.0 1.6 0.00 0.00 0.00 60 1014.2
20260906210038 27 17 0.0 0.0 0.00 0.00 0.00 55 1014.3
20260906204556 27 5 0.0 4.8 0.00 0.00 0.00 55 1014.3
20260906203037 28 317 0.0 0.0 0.00 0.00 0.00 55 1014.3
20260906201546 28 317 0.0 4.8 0.00 0.00 0.00 53 1014.4
20260906200036 30 186 0.0 4.8 0.00 0.00 0.00 45 1014.3
20260906194536 29 285 0.0 3.2 0.00 0.00 0.00 54 1014.3
20260906193035 28 285 0.0 3.2 0.00 0.00 0.00 51 1014.3
20260906191536 29 330 1.6 4.8 0.00 0.00 0.00 50 1014.3
20260906190034 28 34 0.0 1.6 0.00 0.00 0.00 56 1014.5
20260906184535 28 336 0.0 3.2 0.00 0.00 0.00 55 1014.6
20260906183036 28 349 0.0 3.2 0.00 0.00 0.00 56 1014.7
20260906181533 30 304 0.0 3.2 0.00 0.00 0.00 50 1014.8
20260906180053 28 327 0.0 8.0 0.00 0.00 0.00 53 1014.7
20260906174534 28 46 0.0 4.8 0.00 0.00 0.00 52 1014.6
20260906173029 28 340 0.0 4.8 0.00 0.00 0.00 53 1014.8
20260906171528 28 328 0.0 4.8 0.00 0.00 0.00 51 1014.9
20260906170025 28 344 0.0 3.2 0.00 0.00 0.00 56 1015.0
20260906164524 27 349 0.0 4.8 0.00 0.00 0.00 59 1015.0
20260906163023 28 5 0.0 1.6 0.00 0.00 0.00 62 1015.1
20260906161522 28 5 0.0 3.2 0.00 0.00 0.00 62 1015.2
20260906160020 27 348 0.0 3.2 0.00 0.00 0.00 62 1015.4
20260906154521 27 348 0.0 3.2 0.00 0.00 0.00 64 1015.5
20260906153016 27 24 0.0 4.8 0.00 0.00 0.00 64 1015.5
20260906151512 26 117 0.0 3.2 0.00 0.00 0.00 64 1015.4
20260906150021 26 262 0.0 3.2 0.00 0.00 0.00 64 1015.3
20260906144511 25 246 0.0 3.2 0.00 0.00 0.00 67 1015.2
20260906143003 25 245 0.0 3.2 0.00 0.00 0.00 71 1015.1
20260906141600 24 129 0.0 3.2 0.00 0.00 0.00 78 1015.0
20260906140055 23 148 0.0 4.8 0.00 0.00 0.00 82 1015.1
20260906134552 22 335 0.0 8.0 0.00 0.00 0.00 84 1015.0
20260906133051 21 327 0.0 3.2 0.00 0.00 0.00 89 1014.9
20260906131546 21 327 0.0 1.6 0.00 0.00 0.00 93 1014.7
20260906130043 20 327 0.0 0.0 0.00 0.00 0.00 95 1014.7
20260906053018 21 324 0.0 0.0 0.00 0.00 0.00 96 1012.4
20260906051518 21 324 0.0 0.0 0.00 0.00 0.00 96 1012.5
20260906050018 21 324 0.0 0.0 0.00 0.00 0.00 96 1012.6
20260906044517 21 324 0.0 0.0 0.00 0.00 0.00 96 1012.7
20260906043025 21 324 0.0 0.0 0.00 0.00 0.00 96 1012.7
20260906041517 21 324 0.0 0.0 0.00 0.00 0.00 95 1012.6
20260906040022 21 324 0.0 0.0 0.00 0.00 0.00 95 1012.5
20260906034529 21 324 0.0 0.0 0.00 0.00 0.00 95 1012.5
20260906033024 21 324 0.0 0.0 0.00 0.00 0.00 95 1012.6
20260906031518 21 324 0.0 0.0 0.00 0.00 0.00 95 1012.5
20260906030015 21 324 0.0 0.0 0.00 0.00 0.00 95 1012.4
20260906024514 21 324 0.0 0.0 0.00 0.00 0.00 94 1012.3
20260906023015 21 324 0.0 0.0 0.00 0.00 0.00 95 1012.4
20260906021513 21 324 0.0 0.0 0.00 0.00 0.00 94 1012.4
20260906020012 22 324 0.0 0.0 0.00 0.00 0.00 94 1012.6
20260906014525 22 324 0.0 0.0 0.00 0.00 0.00 94 1012.4
20260906013015 22 324 0.0 0.0 0.00 0.00 0.00 94 1012.2
20260906011517 22 324 0.0 0.0 0.00 0.00 0.00 94 1012.1
20260906010011 22 324 0.0 0.0 0.00 0.00 0.00 94 1011.9
20260906004514 22 324 0.0 0.0 0.00 0.00 0.00 94 1011.5
20260906003011 22 324 0.0 0.0 0.00 0.00 0.00 94 1011.4
20260906001510 23 324 0.0 0.0 0.00 0.00 0.00 93 1011.2
20260906000010 23 324 0.0 0.0 0.00 0.00 0.00 93 1011.0
20260905234510 23 324 0.0 0.0 0.00 0.00 0.00 93 1010.8
20260905233010 23 324 0.0 0.0 0.00 0.00 0.00 93 1010.8
20260905231509 23 324 0.0 0.0 0.00 0.00 0.00 92 1010.7